FENGYUN 1C DEB, 31929

Orbit data source: Space-Track

FENGYUN 1C DEB, 31929 is space debris in SSO originally from a launch on Mon, 10 May 1999 UTC launched from the Taiyaun Space Center, China (TSC). Fengyun 1C debris stems from the Chinese weather satellite Fengyun-1C, which was intentionally destroyed by a Chinese anti-satellite missile in 2007. This event dramatically increased the amount of space debris, with thousands of trackable fragments posing hazards to satellites and human spaceflight. The Fengyun 1C debris cloud has become a focal point in discussions about space sustainability and the need for international regulations to prevent the creation of new debris.

Loading next visibility...
Identifier
31929, 1999-025CME
Orbit
SSO
Country
Flag of CNCN / PRC
Related business
Manufacturer
Unknown
Mission
Spacecraft
Bus & Motor
Unknown
Mass
Unknown
Launch date (UTC)
1999-05-10 (27 years ago)
Launch vehicle
Unknown
Launch site
Taiyaun Space Center, China (TSC)
Object type
Payload
Rocket body
Debris
Shape & HBR
Unknown shape, 0.1 m
Radar Cross Section
Small (<0.1 m²)

Expand to show TLE details & history
Last TLE update: 1 week ago

TLE from 1 week ago
0 FENGYUN 1C DEB
1 31929U 99025CME 26200.65951690  .00000541  00000-0  19763-3 0  9999
2 31929  98.8190 339.4054 0074200 129.5852 231.1917 14.35548115737866
Epoch: 2026-07-19T15:49Z
TLE epoch observation values (Epoch: 2026-07-19T15:49:42.260Z)
Latitude
0.00002°
Longitude
164.52458°
Altitude
809.678 km
Speed
7.431 km/s
True Right ascension
22h 37m 37s
True Declination
0° 00' 00"
Sunlit
Object was in full shadow at epoch
Visualization orbit readout
Latitude
Unknown
Longitude
Unknown
Altitude
Unknown
Speed
Unknown
Apparent Right ascension
Unknown
Apparent Declination
Unknown
Sunlit
N/A
Visualization observer readout
Local Sidereal Time
01:11:31
Azimuth
Unknown
Elevation
Unknown
Doppler factor
Unknown
Orbital elements
Apogee altitude
823.43 km
Perigee altitude
717.346 km
Semi-major axis
7,148.525 km
Eccentricity
0.00742
Inclination
98.819°
RAAN
339.4054°
Arg. of periapsis
129.5852°
True anomaly
230.53297°
Mean anomaly
231.1917°
Eccentric anomaly
230.86195°
Mean motion
3.59103 °/min
Orbital period
100.25 mins
BSTAR
0.00019763
Loading maneuver chart data...
Computing Atmospheric mass density...
Loading historical data...
Loading historical data...
Loading historical data...
Loading historical data...
Loading historical data...
Loading historical data...
Loading historical data...

Documentation

Showing up to 5 results
|